OSCAR 30

Satellite information

Favourite Embed

Satellite Type and Status

PAYLOADIN ORBIT

Key statistics

Satellite OSCAR 30 at a glance.

Uptime

14583

Days in orbit

Revolutions

≈ 13.4

Per day

Orbit

SSO

Sun Synchronous Orbit

Inclination

90.2

Latest

Satellite identification and parameters

Extended collection of information and parameters for OSCAR 30.

Object identification

Identified? True

Debris? False

Object name: OSCAR 30

International designator: 1985-066A

Object number (NORAD): 15935

Object ID (CCSDS): 15935

Country: UNITED STATES OF AMERICA (US)

Current information (Y/N): Y

RCS size: LARGE

Orbital parameters

Period: 107.781 minutes

Inclination: 90.1714 deg

SMA: 7502.194 km

Apoapsis: 1249.885 km

Periapsis: 998.232 km

RAAN: 97.275 deg

Eccentricy: 0.016772

Argument of periapsis: 171.4436 deg

Mean anomaly: 260.0596 deg

Mean motion: 13.36042776 rev/day

Mean motion (dot): 0.00000069 rev/day2

B* drag term: 0.00010845 1/REarth

Two-line elements (TLE)

Creation date: July 6, 2025, 10:46 p.m.

Reference frame: TEME

Reference center: EARTH

Epoch: July 6, 2025, 7:48 p.m. UTC

TLE line 0: 0 OSCAR 30

TLE line 1: 1 15935U 85066A 25187.82509102 .00000069 00000-0 10845-3 0 9994

TLE line 2: 2 15935 90.1714 97.2750 0167720 171.4436 260.0596 13.36042776943380

Live tracking on map

Real-time ground track for satellite OSCAR 30.

In-orbit conjunctions

A list of the most updated potential collisions computed for object OSCAR 30.

Target Orbit TCA Probability of collision Miss distance Type
THORAD AGENA D DEB SSO 2025-05-18 17:38:50 0.0003067582 313.0 (m) DEBRIS
SL-14 DEB LEO 2025-01-01 10:07:25 0.0006678212 78.0 (m) DEBRIS

Associated space launch

The Transit-O series of satellites that closely followed the design of Transit 5C-1 were also called “Oscars” (Oscar is the phonetic alphabet for “O”, i. e., operational). They were also called NNS (Navy Navigation Satellite) or shortened NavSat.

OSCAR 30 was lifted into orbit during the mission ‘Scout G-1 | Transit-O 24,30’, on board a Scout G-1 space rocket.

The launch took place on Aug. 3, 1985, 3:31 a.m. from Space Launch Complex 5.

For more information about the launch, click the button.

Launch to space Scout G-1 | Transit-O 24,30
Scout G-1 | Transit-O 24,30

Agency: N/A

Status: Launch Successful

Launch date: Aug. 3, 1985, 3:31 a.m. UTC

Rocket: Scout G-1

Launch pad: Space Launch Complex 5

Location: Vandenberg SFB, CA, USA

...

Latest news about this satellite

There are no fresh news available about this satellite. Check back as we update our databases every day.


Newsletter sign-up

Weekly statistics, charts and insights to help you stay on top of the space industry.